Rifle, CO

2:42 PM MDT on March 27, 2017 (GMT -0600)
Garfield County Regional

Weather History for KRIL - August, 2013

Change the Weather History Date:

Tuesday, August 27, 2013

  Actual Average Record
Temperature  
Mean Temperature 72 °F 68 °F  
Max Temperature 89 °F 85 °F 98 °F (1929)
Min Temperature 55 °F 51 °F 34 °F (1992)
Degree Days  
Heating Degree Days 0 0  
Month to date heating degree days 0 0  
Since 1 June heating degree days 13 60  
Since 1 July heating degree days 0 1  
Cooling Degree Days 7 3  
Month to date cooling degree days 167 162  
Year to date cooling degree days 664 505  
Since 1 June cooling degree days 657 498  
Growing Degree Days 22 (Base 50)    
Moisture  
Dew Point 52 °F    
Average Humidity 58    
Maximum Humidity 93    
Minimum Humidity 23    
Precipitation  
Precipitation T in 0.05 in 1.00 in (1952)
Month to date precipitation 0.30 1.19  
Year to date precipitation 5.06 8.76  
Sea Level Pressure  
Sea Level Pressure 30.01 in    
Wind  
Wind Speed 6 mph (WSW)    
Max Wind Speed 26 mph    
Max Gust Speed 33 mph    
Visibility 10 miles    
Events      
T = Trace of Precipitation, MM = Missing Value Source: NWS Daily Summary

Daily Weather History Graph

Daily Weather History Graph

Search for Another Location

Airport or City:

Trip Planner

Search our weather history database for the weather conditions in past years. The results will help you decide how hot, cold, wet, or windy it might be!

Date:

Astronomy

Aug. 27, 2013 Rise Set
Actual Time 6:34 AM MDT 7:49 PM MDT
Civil Twilight 6:06 AM MDT 8:16 PM MDT
Nautical Twilight 5:33 AM MDT 8:50 PM MDT
Astronomical Twilight 4:58 AM MDT 9:24 PM MDT
Moon 11:46 PM MDT 1:33 PM MDT
Length of Visible Light 14h 09m
Length of Day
13h 14m
Waning Gibbous, 56% of the Moon is Illuminated
Aug 27
Waning Gibbous
Aug 28
Last Quarter
Sep 5
New
Sep 12
First Quarter
Sep 19
Full

Hourly Weather History & Observations

Time (MDT) Temp. Dew Point Humidity Pressure Visibility Wind Dir Wind Speed Gust Speed Precip Events Conditions
12:53 AM 63.0 °F 55.9 °F 78% 30.07 in 10.0 mi Calm Calm - N/A   Clear
1:53 AM 62.1 °F 55.0 °F 78% 30.07 in 10.0 mi ESE 3.5 mph - N/A   Scattered Clouds
2:53 AM 60.1 °F 55.0 °F 83% 30.07 in 10.0 mi Calm Calm - N/A   Mostly Cloudy
3:53 AM 59.0 °F 55.0 °F 87% 30.09 in 10.0 mi Calm Calm - N/A   Clear
4:53 AM 57.9 °F 54.0 °F 87% 30.09 in 10.0 mi East 3.5 mph - N/A   Scattered Clouds
5:53 AM 55.0 °F 53.1 °F 93% 30.09 in 10.0 mi Calm Calm - N/A   Clear
6:53 AM 55.0 °F 52.0 °F 89% 30.10 in 10.0 mi Calm Calm - N/A   Clear
7:53 AM 60.1 °F 53.1 °F 78% 30.10 in 10.0 mi SE 3.5 mph - N/A   Partly Cloudy
8:53 AM 64.0 °F 55.0 °F 73% 30.11 in 10.0 mi Calm Calm - N/A   Clear
9:53 AM 70.0 °F 53.1 °F 55% 30.09 in 10.0 mi Calm Calm - N/A   Clear
10:53 AM 73.0 °F 54.0 °F 51% 30.08 in 10.0 mi WNW 4.6 mph - N/A   Clear
11:53 AM 77.0 °F 54.0 °F 45% 30.03 in 10.0 mi NW 3.5 mph - N/A   Clear
12:53 PM 82.0 °F 51.1 °F 34% 29.99 in 10.0 mi NNW 3.5 mph - N/A   Clear
1:53 PM 84.0 °F 52.0 °F 33% 29.96 in 10.0 mi West 8.1 mph - N/A   Clear
2:53 PM 87.1 °F 51.1 °F 29% 29.92 in 10.0 mi WSW 17.3 mph - N/A   Clear
3:53 PM 87.1 °F 46.0 °F 24% 29.90 in 10.0 mi West 18.4 mph 24.2 mph N/A   Clear
4:53 PM 89.1 °F 46.9 °F 23% 29.88 in 10.0 mi West 20.7 mph - N/A   Clear
5:53 PM 88.0 °F 46.0 °F 23% 29.90 in 10.0 mi West 18.4 mph 25.3 mph 0.00 in   Partly Cloudy
6:53 PM 82.9 °F 48.0 °F 29% 29.91 in 10.0 mi West 16.1 mph 25.3 mph N/A   Clear
7:53 PM 79.0 °F 50.0 °F 36% 29.93 in 10.0 mi West 12.7 mph - N/A   Clear
8:53 PM 75.9 °F 52.0 °F 43% 29.97 in 10.0 mi SSE 4.6 mph - N/A   Clear
9:53 PM 73.9 °F 53.1 °F 48% 29.96 in 10.0 mi SE 6.9 mph - N/A   Scattered Clouds
10:53 PM 75.0 °F 53.1 °F 46% 29.97 in 10.0 mi Calm Calm - N/A   Mostly Cloudy
11:53 PM 69.1 °F 53.1 °F 57% 29.98 in 10.0 mi ESE 4.6 mph - N/A   Clear